Date,TemperatureHighF,TemperatureAvgF,TemperatureLowF,DewpointHighF,DewpointAvgF,DewpointLowF,HumidityHigh,HumidityAvg,HumidityLow,PressureMaxIn,PressureMinIn,WindSpeedMaxMPH,WindSpeedAvgMPH,GustSpeedMaxMPH,PrecipitationSumIn
2013-3-1,31,29,27,26,23,21,84,78,71,30.33,30.20,7,3,13,0.00
2013-3-2,36,29,24,24,22,19,85,74,58,30.39,30.23,9,2,11,0.00
2013-3-3,58,43,28,32,27,21,76,54,36,30.24,29.75,11,3,17,0.00
2013-3-4,67,54,42,45,37,30,70,54,39,29.91,29.57,12,4,18,0.00
2013-3-5,43,37,31,34,25,18,91,64,47,30.36,29.90,24,7,31,0.14
2013-3-6,44,34,24,26,22,18,78,63,46,30.45,30.28,11,3,14,0.00
2013-3-7,64,50,36,28,26,22,68,43,22,30.29,30.11,10,4,17,0.00
2013-3-8,65,54,43,41,35,29,65,51,37,30.20,30.01,14,6,19,0.01
2013-3-9,68,59,52,57,47,37,92,66,51,30.01,29.61,18,6,27,0.96
2013-3-10,56,44,30,53,41,27,93,90,75,29.96,29.59,17,7,26,0.27
2013-3-11,44,34,28,28,24,21,88,69,40,30.06,29.94,16,6,22,0.00
2013-3-12,54,41,29,31,26,22,85,59,37,30.36,30.05,11,2,21,0.00
2013-3-13,48,38,26,24,22,17,81,55,31,30.50,30.36,9,1,10,0.00
2013-3-14,72,54,38,43,31,19,66,42,33,30.36,30.07,19,5,32,0.00
2013-3-15,78,66,49,48,45,41,74,49,31,30.08,29.71,17,6,24,0.00
2013-3-16,69,56,44,47,42,36,76,61,44,29.89,29.69,19,10,24,0.00
2013-3-17,44,40,38,40,38,35,95,90,75,29.94,29.70,22,10,27,0.17
2013-3-18,55,45,38,41,36,27,96,74,35,30.06,29.71,12,3,21,0.04
2013-3-19,51,42,33,33,25,15,81,54,31,30.28,30.05,14,5,22,0.00
2013-3-20,45,37,29,31,21,12,91,57,32,30.41,30.14,13,3,17,0.00
2013-3-21,40,34,32,31,20,9,90,60,30,30.14,29.85,17,8,23,0.01
2013-3-22,40,36,33,36,33,30,92,88,84,29.97,29.87,9,5,14,0.06
2013-3-23,40,38,36,39,36,34,95,93,87,29.97,29.75,20,7,20,0.06
2013-3-24,38,32,26,36,28,21,95,87,75,30.16,29.68,18,2,18,0.30
2013-3-25,35,23,23,26,-4,-100,83,59,63,30.39,30.14,16,-216,22,0.06
2013-3-26,43,34,23,27,24,20,90,67,48,30.47,30.33,9,1,12,0.02
2013-3-27,60,45,29,31,25,20,79,49,23,30.34,30.16,18,3,18,0.00
2013-3-28,71,59,49,49,40,30,62,49,44,30.19,30.07,17,4,17,0.00
2013-3-29,68,60,53,55,51,47,93,73,57,30.16,30.07,15,4,15,0.44
2013-3-30,71,60,54,57,53,48,93,78,53,30.08,29.83,20,4,20,1.17
2013-3-31,67,57,48,53,46,39,96,69,38,29.98,29.84,21,2,21,0.19